Home > Weather > Saratov > Past weeks

Flag for Russia Past Weather in Saratov, Russia — Yesterday and Last 2 Weeks

Now
79 °F

Broken clouds.


Feels Like: 80 °F
Forecast: 63 / 77 °F
Wind: 13 mph from North

Location: Saratov / Tsentralny

Current Time: Aug 26, 2016 at 5:00:50 PM

Latest Report: Aug 26, 2016 at 4:30 PM


Visibility: N/A

Pressure: 29.98 "Hg

Humidity: 48%

Dew Point: 57 °F

Location of SaratovLocation

Past Weather in Saratov — Graph

°F

Saratov Temperature Yesterday

Maximum temperature yesterday: 90 °F (at 3:00 PM)
Minimum temperature yesterday: 63 °F (at 6:00 AM)
Average temperature yesterday: 78 °F

High & Low Weather Summary for the Past Weeks

 TemperatureHumidityPressure
High99 °F (Aug 21, 4:00 PM)94% (Aug 15, 4:00 AM)30.27 "Hg (Aug 15, 4:00 AM)
Low61 °F (Aug 16, 1:00 AM)15% (Aug 24, 2:00 PM)29.74 "Hg (Aug 14, 8:00 PM)
Average79 °F48%30.04 "Hg
* Reported Aug 11 4:00 PM — Aug 26 4:00 PM, Saratov, Weather by CustomWeather, © 2016

Note: Actual official high and low records may vary slightly from our data, if they occured in-between our weather recording intervals... More about our weather records

Advertising

Saratov Weather History for the Previous 24 Hours

Scroll right to see more
 ConditionsComfort  
Time TempWeatherWind HumidityBarometerVisibility
4:00 PM
Fri, Aug 26
79 °FBroken clouds.13 mph48%29.98 "HgN/A
3:30 PM81 °FBroken clouds.8 mph37%29.95 "HgN/A
3:00 PM81 °FBroken clouds.3 mph37%29.95 "HgN/A
2:30 PM81 °FBroken clouds.6 mph37%29.95 "HgN/A
2:00 PM81 °FBroken clouds.8 mph37%29.95 "HgN/A
1:30 PM81 °FBroken clouds.8 mph37%29.95 "HgN/A
1:00 PM81 °FBroken clouds.6 mph37%29.95 "HgN/A
12:30 PM79 °FBroken clouds.6 mph39%29.95 "HgN/A
12:00 PM79 °FBroken clouds.6 mph39%29.98 "HgN/A
11:30 AM75 °FSunny.6 mph47%29.95 "Hg10 mi
11:00 AM75 °FSunny.3 mph47%29.95 "Hg10 mi
10:30 AM73 °FSunny.3 mph53%29.95 "Hg10 mi
10:00 AM73 °FSunny.3 mph53%29.95 "Hg10 mi
9:30 AM72 °FSunny.1 mph57%29.95 "Hg10 mi
9:00 AM72 °FSunny.1 mph57%29.95 "Hg10 mi
8:30 AM72 °FSunny.6 mph65%29.95 "Hg10 mi
8:00 AM72 °FSunny.3 mph61%29.95 "Hg10 mi
7:30 AM72 °FSunny.1 mph65%29.95 "Hg10 mi
7:00 AM72 °FSunny.1 mph65%29.95 "Hg10 mi
6:30 AM72 °FSunny.No wind65%29.95 "Hg10 mi
6:00 AM72 °FSunny.No wind65%29.95 "Hg10 mi
5:30 AM72 °FMore clouds than sun.1 mph65%29.95 "HgN/A
5:00 AM72 °FMore clouds than sun.1 mph65%29.95 "HgN/A
4:30 AM72 °FClear.1 mph61%29.92 "Hg10 mi
4:00 AM72 °FClear.8 mph61%29.92 "Hg10 mi
3:00 AM72 °FClear.3 mph57%29.92 "Hg10 mi
2:00 AM73 °FClear.6 mph41%29.89 "Hg10 mi
1:00 AM73 °FClear.6 mph41%29.89 "Hg10 mi
12:00 AM73 °FClear.6 mph36%29.92 "Hg10 mi
11:30 PM
Thu, Aug 25
77 °FClear.6 mph30%29.92 "Hg10 mi
11:00 PM77 °FClear.6 mph30%29.92 "Hg10 mi
10:30 PM77 °FClear.3 mph36%29.92 "Hg10 mi
10:00 PM77 °FClear.3 mph36%29.92 "Hg10 mi
9:30 PM77 °FClear.1 mph44%29.92 "Hg10 mi
9:00 PM77 °FClear.1 mph44%29.92 "Hg10 mi
8:30 PM79 °FClear.1 mph37%29.92 "Hg10 mi
8:00 PM79 °FClear.1 mph37%29.92 "Hg10 mi
7:30 PM82 °FClear.1 mph30%29.92 "Hg10 mi
7:00 PM82 °FClear.1 mph30%29.92 "Hg10 mi
6:30 PM86 °FSunny.3 mph25%29.92 "Hg10 mi
6:00 PM86 °FSunny.3 mph25%29.92 "Hg10 mi
5:30 PM88 °FSunny.6 mph19%29.92 "Hg10 mi
5:00 PM88 °FSunny.6 mph19%29.92 "Hg10 mi
Weather by CustomWeather, © 2016

See weather overviewHow to use our weather pages